User: anonymous   Login
Location: Unspecified
(0.0000°N, 0.0000°E)
Time: 21:55:14
(UTC+00:00)
Language:

OPAL - Orbit

View from above orbital plane
View from above orbital plane
View from above satellite
View from above satellite

Ground track
Ground track

The orbit data is extracted from the following two-line orbital elements,

1 26063U 00004C   17082.90592705 -.00000002 +00000-0 +19214-4 0  9990
2 26063 100.2255 070.6279 0036358 187.8280 172.2337 14.36656312898933
Epoch (UTC): 23 March 2017 21:44:32
Eccentricity: 0.0036358
inclination: 100.2255°
perigee height: 743 km
apogee height: 795 km
right ascension of ascending node: 70.6279°
argument of perigee: 187.8280°
revolutions per day: 14.36656312
mean anomaly at epoch: 172.2337°
orbit number at epoch: 89893

The dashed part of the orbit path shows where the satellite is in the earth's shadow,  

DLR